QPF
0.00 0.00 0.00 0.00 0.00 0.00 0.00 0.00 0.00 0.00 0.00 0.00 0.00 0.00 0.00 0.00 0.00 0.00 0.00 0.00 0.00 0.00 0.01 0.01 0.02 0.02 0.03 0.06 0.05 0.07 0.13 0.12 0.13 0.12 0.08 0.07 0.06 0.05 0.05 0.04 0.04 0.06 0.06 0.07
0.00 0.00 0.00 0.00 0.00 0.00 0.00 0.00 0.00 0.00 0.00 0.00 0.00 0.00 0.00 0.00 0.00 0.00 0.00 0.00 0.00 0.00 0.01 0.01 0.01 0.01 0.02 0.04 0.06 0.10 0.19 0.22 0.17 0.12 0.10 0.09 0.08 0.07 0.07 0.06 0.05 0.06 0.06 0.06
0.00 0.00 0.00 0.00 0.00 0.00 0.00 0.00 0.00 0.00 0.00 0.00 0.00 0.00 0.00 0.00 0.00 0.00 0.00 0.00 0.00 0.00 0.00 0.00 0.01 0.01 0.02 0.04 0.05 0.08 0.15 0.23 0.20 0.14 0.14 0.12 0.10 0.08 0.07 0.06 0.05 0.04 0.06 0.07
0.00 0.00 0.00 0.00 0.00 0.00 0.00 0.00 0.00 0.00 0.00 0.00 0.00 0.00 0.00 0.00 0.00 0.00 0.00 0.00 0.00 0.00 0.00 0.00 0.01 0.01 0.01 0.02 0.03 0.06 0.10 0.10 0.11 0.11 0.13 0.13 0.09 0.07 0.06 0.06 0.06 0.07 0.07 0.06
0.00 0.00 0.00 0.00 0.00 0.00 0.00 0.00 0.00 0.00 0.00 0.00 0.00 0.00 0.00 0.00 0.00 0.00 0.00 0.00 0.00 0.00 0.00 0.00 0.01 0.01 0.02 0.03 0.03 0.06 0.10 0.11 0.10 0.08 0.08 0.09 0.07 0.06 0.07 0.08 0.10 0.09 0.08 0.07
0.00 0.00 0.00 0.00 0.00 0.00 0.00 0.00 0.00 0.00 0.00 0.00 0.00 0.00 0.00 0.00 0.00 0.00 0.00 0.00 0.00 0.00 0.00 0.00 0.01 0.02 0.03 0.03 0.04 0.06 0.09 0.10 0.09 0.09 0.08 0.09 0.08 0.07 0.06 0.07 0.09 0.08 0.06 0.05
0.00 0.00 0.00 0.00 0.00 0.00 0.00 0.00 0.00 0.00 0.00 0.00 0.00 0.00 0.00 0.00 0.00 0.00 0.00 0.00 0.00 0.00 0.00 0.00 0.00 0.01 0.01 0.01 0.02 0.05 0.07 0.07 0.08 0.08 0.08 0.07 0.07 0.06 0.06 0.07 0.07 0.07 0.05 0.03
0.00 0.00 0.00 0.00 0.00 0.00 0.00 0.00 0.00 0.00 0.00 0.00 0.00 0.00 0.00 0.00 0.00 0.00 0.00 0.00 0.00 0.00 0.00 0.00 0.00 0.01 0.01 0.01 0.02 0.04 0.05 0.04 0.04 0.06 0.07 0.07 0.07 0.06 0.07 0.07 0.07 0.06 0.04 0.04
0.00 0.00 0.00 0.00 0.00 0.00 0.00 0.00 0.00 0.00 0.00 0.00 0.00 0.00 0.00 0.00 0.00 0.00 0.00 0.01 0.00 0.00 0.00 0.00 0.00 0.01 0.01 0.00 0.01 0.03 0.04 0.03 0.03 0.04 0.06 0.07 0.09 0.09 0.09 0.10 0.11 0.08 0.05 0.04
0.00 0.00 0.00 0.00 0.00 0.00 0.00 0.00 0.00 0.00 0.00 0.00 0.00 0.00 0.00 0.00 0.00 0.00 0.00 0.00 0.00 0.00 0.00 0.00 0.01 0.01 0.01 0.01 0.01 0.01 0.02 0.02 0.03 0.03 0.03 0.05 0.08 0.10 0.10 0.11 0.10 0.10 0.07 0.04
0.00 0.00 0.00 0.00 0.00 0.00 0.00 0.00 0.00 0.00 0.00 0.00 0.00 0.00 0.00 0.00 0.00 0.00 0.00 0.00 0.00 0.00 0.00 0.00 0.00 0.01 0.01 0.00 0.00 0.01 0.01 0.02 0.02 0.03 0.04 0.05 0.07 0.11 0.13 0.12 0.12 0.12 0.10 0.07
0.00 0.00 0.00 0.00 0.00 0.00 0.00 0.00 0.00 0.00 0.00 0.00 0.00 0.00 0.00 0.00 0.00 0.00 0.00 0.00 0.00 0.00 0.00 0.00 0.00 0.00 0.01 0.00 0.00 0.01 0.01 0.01 0.01 0.02 0.03 0.04 0.06 0.09 0.11 0.14 0.15 0.14 0.13 0.10
0.00 0.00 0.00 0.00 0.00 0.00 0.00 0.00 0.00 0.00 0.00 0.00 0.00 0.00 0.00 0.00 0.00 0.00 0.00 0.00 0.00 0.00 0.00 0.00 0.00 0.00 0.01 0.01 0.01 0.01 0.01 0.02 0.02 0.02 0.02 0.03 0.05 0.06 0.08 0.11 0.12 0.14 0.15 0.13
0.00 0.00 0.00 0.00 0.00 0.00 0.00 0.00 0.00 0.00 0.00 0.00 0.00 0.00 0.00 0.00 0.00 0.00 0.00 0.00 0.00 0.00 0.00 0.00 0.00 0.01 0.01 0.01 0.01 0.01 0.01 0.02 0.02 0.02 0.02 0.03 0.04 0.05 0.06 0.09 0.10 0.11 0.10 0.11
0.00 0.00 0.00 0.00 0.00 0.00 0.00 0.00 0.00 0.00 0.00 0.00 0.00 0.00 0.00 0.00 0.00 0.00 0.00 0.00 0.00 0.00 0.00 0.00 0.00 0.01 0.01 0.01 0.01 0.01 0.02 0.02 0.02 0.03 0.03 0.04 0.05 0.06 0.07 0.08 0.09 0.11 0.11 0.11
0.00 0.00 0.00 0.00 0.00 0.00 0.00 0.00 0.00 0.00 0.00 0.00 0.00 0.00 0.00 0.00 0.00 0.00 0.00 0.00 0.00 0.00 0.00 0.00 0.00 0.01 0.01 0.01 0.01 0.01 0.02 0.03 0.03 0.04 0.06 0.07 0.08 0.08 0.09 0.11 0.12 0.13 0.15 0.13
0.00 0.00 0.00 0.00 0.00 0.00 0.00 0.00 0.00 0.00 0.00 0.00 0.00 0.00 0.00 0.00 0.00 0.00 0.00 0.00 0.00 0.00 0.00 0.00 0.01 0.01 0.01 0.01 0.01 0.01 0.02 0.05 0.08 0.08 0.07 0.07 0.09 0.10 0.10 0.11 0.10 0.10 0.14 0.14
0.00 0.00 0.00 0.00 0.00 0.00 0.00 0.00 0.00 0.00 0.00 0.00 0.00 0.00 0.00 0.00 0.00 0.00 0.00 0.00 0.00 0.00 0.00 0.00 0.01 0.01 0.01 0.01 0.01 0.02 0.02 0.03 0.07 0.10 0.12 0.12 0.11 0.12 0.15 0.15 0.13 0.12 0.12 0.12
0.00 0.00 0.00 0.00 0.00 0.00 0.00 0.00 0.00 0.00 0.00 0.00 0.00 0.00 0.00 0.00 0.00 0.00 0.00 0.00 0.01 0.01 0.01 0.01 0.01 0.01 0.01 0.01 0.01 0.01 0.01 0.02 0.03 0.04 0.06 0.09 0.10 0.12 0.16 0.18 0.20 0.20 0.16 0.14
0.00 0.00 0.00 0.00 0.00 0.00 0.00 0.00 0.00 0.00 0.00 0.00 0.00 0.00 0.00 0.00 0.00 0.00 0.00 0.00 0.00 0.01 0.01 0.00 0.01 0.01 0.01 0.01 0.01 0.01 0.02 0.02 0.02 0.04 0.06 0.07 0.08 0.10 0.14 0.15 0.17 0.19 0.16 0.14
0.00 0.00 0.00 0.00 0.00 0.00 0.00 0.00 0.00 0.01 0.00 0.00 0.00 0.00 0.00 0.00 0.00 0.00 0.00 0.00 0.00 0.00 0.00 0.00 0.01 0.01 0.01 0.01 0.01 0.01 0.01 0.02 0.04 0.06 0.07 0.07 0.07 0.07 0.10 0.12 0.14 0.17 0.19 0.18
0.00 0.00 0.00 0.00 0.00 0.00 0.00 0.00 0.01 0.01 0.00 0.00 0.00 0.00 0.00 0.01 0.00 0.00 0.00 0.00 0.00 0.00 0.01 0.01 0.01 0.01 0.01 0.01 0.01 0.01 0.01 0.02 0.04 0.08 0.09 0.08 0.07 0.07 0.08 0.08 0.10 0.14 0.17 0.17
0.01 0.00 0.00 0.00 0.00 0.00 0.00 0.00 0.00 0.00 0.00 0.01 0.01 0.01 0.01 0.01 0.00 0.00 0.00 0.00 0.00 0.00 0.00 0.00 0.01 0.01 0.01 0.01 0.02 0.02 0.03 0.03 0.03 0.05 0.07 0.06 0.06 0.07 0.07 0.08 0.10 0.13 0.14 0.14
0.01 0.00 0.01 0.01 0.00 0.00 0.00 0.00 0.00 0.01 0.01 0.01 0.01 0.01 0.01 0.00 0.00 0.00 0.00 0.00 0.00 0.00 0.00 0.01 0.02 0.02 0.02 0.02 0.02 0.02 0.02 0.04 0.05 0.06 0.05 0.04 0.05 0.07 0.08 0.10 0.11 0.14 0.16 0.16
0.01 0.01 0.02 0.02 0.01 0.01 0.01 0.00 0.00 0.00 0.00 0.01 0.01 0.01 0.00 0.00 0.00 0.00 0.00 0.00 0.00 0.00 0.01 0.02 0.03 0.03 0.03 0.03 0.03 0.03 0.03 0.05 0.06 0.06 0.05 0.06 0.07 0.09 0.11 0.12 0.13 0.14 0.15 0.16
0.01 0.02 0.03 0.03 0.02 0.02 0.01 0.00 0.00 0.01 0.01 0.01 0.01 0.01 0.00 0.00 0.00 0.00 0.00 0.00 0.00 0.01 0.01 0.02 0.04 0.04 0.03 0.03 0.03 0.03 0.03 0.05 0.05 0.07 0.07 0.07 0.08 0.10 0.10 0.11 0.14 0.16 0.15 0.15
MSLP
1010.91 1011.26 1011.47 1011.59 1011.63 1011.63 1011.63 1011.60 1011.55 1011.42 1011.19 1010.82 1010.31 1009.70 1009.04 1008.41 1007.89 1007.56 1007.45 1007.58 1007.92 1008.42 1009.03 1009.67 1010.30 1010.88 1011.41 1011.90 1012.36 1012.83 1013.29 1013.74 1014.17 1014.55 1014.86 1015.10 1015.25 1015.36 1015.45 1015.56 1015.72 1015.95 1016.26 1016.64
1011.15 1011.40 1011.54 1011.58 1011.59 1011.61 1011.65 1011.71 1011.74 1011.71 1011.55 1011.23 1010.73 1010.10 1009.39 1008.68 1008.08 1007.67 1007.50 1007.58 1007.89 1008.37 1008.95 1009.56 1010.15 1010.67 1011.14 1011.56 1011.96 1012.37 1012.81 1013.27 1013.72 1014.15 1014.52 1014.81 1015.01 1015.15 1015.24 1015.34 1015.48 1015.69 1015.99 1016.36
1011.23 1011.39 1011.43 1011.43 1011.42 1011.46 1011.57 1011.72 1011.86 1011.93 1011.85 1011.58 1011.11 1010.46 1009.70 1008.94 1008.27 1007.79 1007.56 1007.59 1007.87 1008.32 1008.88 1009.46 1009.99 1010.47 1010.87 1011.22 1011.55 1011.91 1012.32 1012.77 1013.26 1013.73 1014.16 1014.52 1014.78 1014.96 1015.07 1015.17 1015.30 1015.49 1015.76 1016.12
1011.11 1011.18 1011.16 1011.13 1011.13 1011.22 1011.41 1011.67 1011.92 1012.10 1012.11 1011.91 1011.46 1010.80 1010.00 1009.18 1008.44 1007.90 1007.61 1007.59 1007.83 1008.26 1008.79 1009.35 1009.86 1010.28 1010.63 1010.92 1011.20 1011.51 1011.89 1012.34 1012.84 1013.36 1013.85 1014.27 1014.60 1014.83 1014.98 1015.09 1015.21 1015.38 1015.62 1015.96
1010.80 1010.81 1010.76 1010.72 1010.77 1010.93 1011.22 1011.60 1011.98 1012.26 1012.36 1012.21 1011.78 1011.11 1010.28 1009.39 1008.59 1007.98 1007.63 1007.57 1007.78 1008.18 1008.70 1009.24 1009.73 1010.13 1010.45 1010.70 1010.94 1011.22 1011.57 1012.01 1012.53 1013.08 1013.62 1014.11 1014.50 1014.78 1014.97 1015.10 1015.21 1015.35 1015.56 1015.86
1010.34 1010.32 1010.27 1010.27 1010.38 1010.64 1011.04 1011.53 1012.03 1012.41 1012.58 1012.47 1012.06 1011.37 1010.50 1009.57 1008.70 1008.03 1007.62 1007.52 1007.69 1008.08 1008.59 1009.13 1009.63 1010.03 1010.34 1010.58 1010.79 1011.04 1011.38 1011.80 1012.32 1012.89 1013.47 1014.00 1014.44 1014.77 1015.00 1015.14 1015.26 1015.38 1015.55 1015.79
1009.78 1009.76 1009.74 1009.80 1010.00 1010.36 1010.87 1011.47 1012.05 1012.51 1012.73 1012.65 1012.24 1011.54 1010.64 1009.66 1008.75 1008.02 1007.57 1007.43 1007.58 1007.95 1008.47 1009.03 1009.55 1009.97 1010.29 1010.54 1010.75 1010.98 1011.29 1011.69 1012.19 1012.75 1013.34 1013.89 1014.37 1014.73 1014.99 1015.16 1015.28 1015.39 1015.52 1015.72
1009.19 1009.20 1009.23 1009.37 1009.66 1010.11 1010.71 1011.38 1012.02 1012.51 1012.76 1012.69 1012.28 1011.57 1010.65 1009.64 1008.70 1007.95 1007.47 1007.31 1007.45 1007.83 1008.36 1008.95 1009.49 1009.95 1010.30 1010.55 1010.77 1010.98 1011.26 1011.62 1012.08 1012.61 1013.18 1013.72 1014.21 1014.60 1014.89 1015.08 1015.21 1015.32 1015.43 1015.59
1008.64 1008.68 1008.78 1008.99 1009.35 1009.87 1010.52 1011.22 1011.87 1012.36 1012.60 1012.51 1012.10 1011.39 1010.48 1009.48 1008.55 1007.81 1007.34 1007.18 1007.33 1007.72 1008.27 1008.88 1009.46 1009.95 1010.32 1010.60 1010.80 1011.00 1011.23 1011.54 1011.94 1012.41 1012.92 1013.44 1013.92 1014.32 1014.64 1014.86 1015.02 1015.14 1015.25 1015.39
1008.17 1008.26 1008.42 1008.68 1009.09 1009.63 1010.26 1010.94 1011.55 1011.99 1012.19 1012.09 1011.67 1010.99 1010.12 1009.18 1008.31 1007.62 1007.19 1007.07 1007.24 1007.65 1008.21 1008.84 1009.44 1009.95 1010.34 1010.62 1010.81 1010.98 1011.16 1011.40 1011.72 1012.11 1012.56 1013.03 1013.49 1013.89 1014.23 1014.49 1014.70 1014.86 1015.00 1015.15
1007.82 1007.95 1008.15 1008.44 1008.85 1009.35 1009.93 1010.51 1011.03 1011.39 1011.52 1011.39 1010.99 1010.36 1009.57 1008.74 1007.98 1007.39 1007.05 1006.99 1007.20 1007.63 1008.20 1008.82 1009.42 1009.93 1010.31 1010.58 1010.76 1010.89 1011.01 1011.18 1011.42 1011.72 1012.10 1012.51 1012.94 1013.35 1013.71 1014.03 1014.29 1014.51 1014.71 1014.91
1007.62 1007.77 1007.99 1008.27 1008.63 1009.06 1009.52 1009.98 1010.35 1010.59 1010.64 1010.48 1010.10 1009.55 1008.89 1008.21 1007.61 1007.17 1006.95 1006.97 1007.23 1007.67 1008.23 1008.83 1009.40 1009.88 1010.24 1010.49 1010.64 1010.72 1010.80 1010.91 1011.07 1011.31 1011.61 1011.98 1012.38 1012.78 1013.18 1013.55 1013.88 1014.19 1014.47 1014.73
1007.54 1007.72 1007.93 1008.18 1008.46 1008.77 1009.08 1009.36 1009.57 1009.67 1009.63 1009.44 1009.10 1008.65 1008.15 1007.66 1007.24 1006.98 1006.90 1007.02 1007.32 1007.77 1008.30 1008.86 1009.37 1009.80 1010.12 1010.33 1010.45 1010.51 1010.56 1010.62 1010.74 1010.93 1011.19 1011.51 1011.89 1012.31 1012.73 1013.16 1013.57 1013.96 1014.33 1014.69
1007.58 1007.77 1007.96 1008.16 1008.35 1008.52 1008.66 1008.75 1008.78 1008.73 1008.59 1008.38 1008.09 1007.76 1007.42 1007.13 1006.93 1006.85 1006.91 1007.13 1007.47 1007.91 1008.40 1008.89 1009.33 1009.69 1009.96 1010.14 1010.24 1010.29 1010.33 1010.39 1010.49 1010.66 1010.90 1011.21 1011.59 1012.01 1012.46 1012.93 1013.41 1013.88 1014.34 1014.79
1007.69 1007.88 1008.06 1008.20 1008.29 1008.32 1008.29 1008.20 1008.06 1007.87 1007.64 1007.40 1007.16 1006.95 1006.78 1006.69 1006.69 1006.79 1007.00 1007.30 1007.68 1008.10 1008.52 1008.93 1009.28 1009.57 1009.78 1009.93 1010.02 1010.09 1010.16 1010.25 1010.38 1010.57 1010.82 1011.14 1011.52 1011.95 1012.43 1012.93 1013.45 1013.99 1014.52 1015.05
1007.83 1008.03 1008.20 1008.29 1008.30 1008.21 1008.03 1007.78 1007.48 1007.16 1006.86 1006.60 1006.41 1006.29 1006.28 1006.36 1006.55 1006.81 1007.14 1007.51 1007.91 1008.29 1008.65 1008.97 1009.23 1009.43 1009.60 1009.72 1009.83 1009.94 1010.07 1010.22 1010.42 1010.66 1010.96 1011.31 1011.70 1012.15 1012.63 1013.15 1013.70 1014.27 1014.84 1015.43
1007.95 1008.18 1008.33 1008.40 1008.34 1008.16 1007.87 1007.49 1007.07 1006.66 1006.29 1006.02 1005.86 1005.83 1005.94 1006.17 1006.50 1006.89 1007.32 1007.75 1008.14 1008.49 1008.78 1009.00 1009.17 1009.31 1009.43 1009.54 1009.68 1009.84 1010.05 1010.30 1010.59 1010.91 1011.28 1011.67 1012.10 1012.56 1013.04 1013.56 1014.11 1014.68 1015.28 1015.89
1008.03 1008.27 1008.43 1008.47 1008.39 1008.15 1007.79 1007.33 1006.83 1006.35 1005.94 1005.66 1005.52 1005.56 1005.76 1006.10 1006.54 1007.03 1007.52 1007.98 1008.37 1008.67 1008.89 1009.03 1009.12 1009.19 1009.27 1009.39 1009.55 1009.78 1010.08 1010.43 1010.83 1011.26 1011.71 1012.17 1012.63 1013.11 1013.60 1014.11 1014.64 1015.20 1015.78 1016.40
1008.04 1008.28 1008.44 1008.49 1008.39 1008.14 1007.75 1007.26 1006.72 1006.21 1005.79 1005.50 1005.39 1005.46 1005.72 1006.13 1006.64 1007.19 1007.72 1008.19 1008.57 1008.83 1008.99 1009.06 1009.08 1009.09 1009.14 1009.25 1009.44 1009.73 1010.11 1010.57 1011.08 1011.61 1012.16 1012.69 1013.22 1013.72 1014.22 1014.72 1015.24 1015.78 1016.35 1016.95
1007.99 1008.20 1008.36 1008.41 1008.32 1008.08 1007.70 1007.22 1006.70 1006.19 1005.77 1005.50 1005.40 1005.51 1005.79 1006.24 1006.78 1007.36 1007.91 1008.38 1008.74 1008.97 1009.08 1009.09 1009.05 1009.02 1009.03 1009.12 1009.33 1009.67 1010.12 1010.66 1011.27 1011.91 1012.56 1013.18 1013.78 1014.33 1014.86 1015.38 1015.89 1016.41 1016.96 1017.55
1007.86 1008.04 1008.18 1008.23 1008.16 1007.96 1007.63 1007.20 1006.72 1006.26 1005.87 1005.62 1005.55 1005.67 1005.96 1006.42 1006.97 1007.55 1008.10 1008.56 1008.90 1009.10 1009.17 1009.14 1009.05 1008.97 1008.95 1009.03 1009.24 1009.59 1010.09 1010.70 1011.39 1012.13 1012.87 1013.59 1014.27 1014.91 1015.49 1016.04 1016.58 1017.11 1017.66 1018.23
1007.70 1007.81 1007.92 1007.97 1007.93 1007.79 1007.53 1007.19 1006.79 1006.40 1006.07 1005.86 1005.81 1005.94 1006.23 1006.67 1007.20 1007.77 1008.30 1008.75 1009.07 1009.25 1009.29 1009.23 1009.11 1008.99 1008.94 1008.99 1009.19 1009.54 1010.06 1010.71 1011.47 1012.29 1013.12 1013.94 1014.72 1015.44 1016.11 1016.72 1017.31 1017.88 1018.45 1019.03
1007.51 1007.55 1007.61 1007.67 1007.67 1007.60 1007.44 1007.20 1006.92 1006.63 1006.38 1006.22 1006.20 1006.33 1006.60 1007.02 1007.51 1008.04 1008.55 1008.97 1009.27 1009.44 1009.47 1009.39 1009.26 1009.12 1009.03 1009.06 1009.23 1009.57 1010.09 1010.76 1011.56 1012.44 1013.35 1014.26 1015.14 1015.97 1016.73 1017.44 1018.09 1018.72 1019.32 1019.92
1007.29 1007.26 1007.29 1007.36 1007.41 1007.43 1007.39 1007.28 1007.13 1006.96 1006.81 1006.72 1006.72 1006.85 1007.11 1007.47 1007.92 1008.40 1008.87 1009.26 1009.55 1009.71 1009.74 1009.67 1009.54 1009.39 1009.29 1009.30 1009.45 1009.77 1010.27 1010.94 1011.75 1012.67 1013.64 1014.63 1015.60 1016.52 1017.38 1018.18 1018.92 1019.60 1020.26 1020.88
1007.06 1006.97 1006.99 1007.08 1007.20 1007.32 1007.42 1007.46 1007.46 1007.42 1007.37 1007.35 1007.39 1007.52 1007.74 1008.06 1008.45 1008.87 1009.28 1009.65 1009.93 1010.09 1010.15 1010.10 1009.99 1009.86 1009.77 1009.77 1009.90 1010.20 1010.67 1011.33 1012.13 1013.06 1014.06 1015.09 1016.12 1017.12 1018.06 1018.94 1019.74 1020.49 1021.18 1021.83
1006.78 1006.68 1006.71 1006.85 1007.06 1007.31 1007.55 1007.75 1007.90 1008.00 1008.06 1008.12 1008.19 1008.31 1008.50 1008.76 1009.09 1009.45 1009.81 1010.15 1010.42 1010.61 1010.69 1010.70 1010.63 1010.55 1010.49 1010.50 1010.63 1010.91 1011.36 1011.98 1012.75 1013.65 1014.64 1015.68 1016.74 1017.77 1018.75 1019.66 1020.51 1021.29 1022.00 1022.65
Thickness
5800 5794 5791 5798 5802 5802 5798 5793 5791 5799 5812 5807 5807 5809 5814 5816 5813 5808 5805 5801 5796 5793 5792 5787 5781 5775 5769 5763 5758 5753 5749 5745 5743 5741 5740 5739 5739 5741 5742 5743 5743 5742 5742 5741
5786 5787 5802 5806 5802 5794 5790 5786 5790 5799 5808 5804 5803 5807 5815 5813 5809 5807 5805 5800 5797 5793 5789 5783 5779 5774 5769 5763 5758 5753 5749 5745 5742 5742 5741 5740 5740 5740 5742 5743 5741 5741 5740 5741
5786 5798 5805 5795 5789 5785 5787 5787 5790 5789 5799 5805 5799 5801 5806 5811 5809 5807 5805 5803 5800 5795 5789 5783 5778 5774 5769 5763 5759 5755 5750 5745 5742 5741 5739 5738 5737 5737 5738 5739 5740 5740 5740 5740
5788 5801 5793 5788 5787 5787 5781 5797 5792 5788 5786 5792 5791 5782 5801 5807 5804 5803 5802 5800 5799 5795 5791 5784 5778 5773 5769 5765 5761 5756 5750 5745 5742 5741 5739 5738 5736 5736 5739 5739 5740 5739 5738 5738
5786 5793 5787 5782 5789 5791 5791 5798 5791 5788 5785 5782 5790 5782 5797 5805 5799 5801 5802 5800 5799 5795 5791 5784 5780 5775 5771 5766 5761 5755 5749 5745 5743 5741 5740 5738 5738 5738 5739 5738 5737 5737 5737 5737
5793 5798 5795 5794 5799 5797 5795 5788 5785 5785 5786 5768 5782 5777 5784 5803 5800 5801 5802 5800 5797 5794 5790 5785 5781 5775 5770 5766 5761 5754 5749 5745 5743 5741 5740 5738 5737 5736 5736 5735 5736 5735 5736 5736
5775 5784 5794 5798 5787 5788 5786 5773 5763 5761 5765 5770 5785 5776 5786 5804 5805 5803 5801 5798 5797 5793 5788 5782 5777 5773 5768 5765 5760 5755 5750 5745 5743 5741 5740 5739 5737 5736 5734 5735 5734 5734 5735 5735
5764 5769 5786 5792 5787 5783 5780 5779 5763 5757 5764 5777 5776 5775 5795 5807 5807 5805 5803 5801 5796 5792 5789 5783 5778 5773 5768 5765 5760 5756 5751 5746 5744 5742 5741 5740 5738 5737 5736 5735 5735 5734 5736 5736
5774 5771 5790 5794 5797 5790 5776 5777 5792 5777 5772 5767 5778 5785 5799 5804 5801 5800 5799 5795 5792 5790 5788 5783 5778 5774 5770 5765 5761 5756 5751 5747 5745 5744 5741 5739 5738 5737 5736 5735 5734 5734 5734 5734
5782 5768 5781 5787 5788 5787 5790 5787 5777 5769 5752 5752 5767 5774 5784 5793 5794 5795 5794 5791 5790 5788 5786 5782 5778 5774 5771 5766 5762 5757 5752 5748 5745 5743 5741 5740 5738 5737 5736 5734 5732 5732 5732 5731
5781 5766 5770 5775 5772 5773 5772 5772 5775 5775 5774 5759 5757 5776 5804 5799 5798 5795 5794 5793 5790 5787 5784 5780 5776 5773 5770 5766 5761 5756 5751 5747 5745 5743 5741 5739 5738 5737 5735 5733 5731 5730 5729 5728
5775 5769 5764 5773 5787 5792 5784 5780 5774 5762 5760 5766 5765 5780 5806 5804 5801 5798 5795 5792 5790 5786 5783 5779 5774 5769 5766 5763 5759 5755 5751 5747 5745 5743 5741 5738 5736 5735 5733 5732 5730 5728 5726 5726
5768 5759 5747 5754 5763 5772 5774 5780 5781 5777 5770 5766 5762 5778 5799 5799 5796 5794 5791 5788 5784 5781 5777 5774 5770 5766 5763 5760 5757 5754 5750 5747 5745 5743 5739 5736 5734 5733 5731 5730 5729 5726 5724 5723
5766 5759 5757 5757 5769 5774 5768 5773 5777 5772 5766 5766 5770 5782 5788 5790 5789 5788 5786 5783 5780 5775 5772 5769 5765 5762 5759 5757 5754 5752 5749 5747 5744 5741 5737 5734 5732 5731 5729 5727 5725 5723 5721 5719
5757 5752 5758 5767 5774 5775 5772 5774 5773 5769 5775 5773 5779 5783 5791 5792 5788 5785 5782 5779 5775 5769 5766 5764 5760 5757 5755 5753 5750 5748 5746 5744 5742 5737 5734 5731 5729 5727 5725 5723 5721 5719 5717 5715
5747 5746 5750 5751 5762 5765 5763 5770 5771 5770 5774 5776 5779 5782 5793 5790 5786 5779 5776 5774 5769 5765 5762 5760 5757 5754 5751 5749 5747 5745 5743 5741 5738 5734 5731 5728 5725 5722 5720 5718 5716 5713 5711 5708
5739 5736 5734 5740 5753 5750 5745 5763 5767 5769 5775 5775 5771 5780 5784 5778 5774 5772 5770 5769 5765 5761 5758 5755 5753 5750 5747 5745 5743 5741 5738 5737 5733 5730 5727 5724 5721 5718 5715 5713 5710 5706 5703 5700
5725 5726 5731 5735 5732 5717 5754 5770 5771 5768 5771 5776 5775 5774 5775 5770 5766 5765 5765 5762 5758 5755 5752 5750 5748 5746 5744 5742 5739 5737 5734 5731 5728 5725 5722 5719 5716 5712 5709 5706 5702 5698 5696 5692
5721 5718 5722 5724 5720 5728 5744 5755 5759 5755 5757 5770 5767 5765 5763 5760 5754 5750 5753 5753 5750 5748 5746 5745 5743 5741 5739 5737 5734 5731 5728 5725 5722 5719 5716 5713 5710 5706 5702 5698 5694 5690 5687 5683
5710 5712 5712 5713 5707 5712 5738 5750 5756 5750 5741 5761 5761 5756 5755 5752 5749 5742 5742 5742 5741 5739 5738 5737 5737 5735 5731 5729 5728 5725 5722 5719 5716 5713 5710 5706 5703 5699 5695 5690 5686 5682 5678 5674
5694 5696 5700 5703 5703 5721 5735 5740 5740 5723 5733 5748 5752 5749 5748 5746 5744 5737 5734 5731 5730 5729 5728 5728 5727 5726 5723 5721 5720 5717 5714 5711 5710 5707 5703 5698 5695 5691 5686 5681 5677 5673 5668 5664
5692 5694 5692 5697 5695 5707 5722 5728 5724 5724 5732 5737 5738 5739 5736 5731 5728 5726 5722 5720 5719 5718 5717 5718 5716 5715 5713 5713 5712 5709 5706 5704 5702 5698 5694 5690 5685 5681 5677 5672 5667 5663 5658 5653
5687 5693 5699 5699 5700 5702 5710 5713 5714 5718 5720 5722 5724 5725 5723 5719 5717 5715 5712 5711 5710 5709 5708 5708 5707 5704 5703 5702 5702 5700 5697 5695 5692 5688 5683 5678 5674 5669 5665 5662 5657 5652 5648 5644
5677 5681 5684 5685 5692 5694 5697 5700 5703 5706 5708 5710 5712 5712 5712 5708 5707 5705 5703 5701 5699 5698 5698 5698 5696 5693 5691 5690 5691 5690 5688 5686 5682 5677 5671 5667 5662 5657 5652 5649 5646 5643 5639 5635
5669 5670 5673 5674 5680 5682 5685 5688 5690 5691 5695 5697 5698 5700 5700 5698 5696 5695 5692 5689 5688 5687 5686 5685 5683 5681 5680 5679 5678 5678 5677 5674 5670 5665 5660 5655 5650 5646 5639 5634 5629 5628 5624 5624
5662 5663 5662 5666 5671 5674 5675 5677 5679 5679 5681 5683 5684 5684 5686 5686 5684 5683 5680 5678 5677 5676 5674 5673 5671 5670 5668 5668 5667 5666 5665 5663 5659 5653 5648 5644 5638 5633 5627 5621 5612 5606 5607 5604